Flag for Germany Weather past 2 weeks in Erfurt, Thuringia, Germany

Now
52 °F

Clear.


Feels Like: 49 °F
Forecast: 45 / 67 °F
Wind: 7 mph from Southwest

Location: Erfurt-Bindersleben

Current Time: Apr 26, 2015 at 11:42:47 PM

Latest Report: Apr 26, 2015 at 10:50 PM


Visibility: 10 mi

Pressure: 29.68 "Hg

Humidity: 88%

Dew point: 48 °F

Location of ErfurtLocation

Historic Weather in Erfurt — Graph

°F

Erfurt temperature yesterday

Maximum temperature yesterday: 64 °F (at 11:50 AM)
Minimum temperature yesterday: 48 °F (at 4:20 AM)
Average temperature yesterday: 57 °F

Past Weeks' High & Low Weather Summary

 TemperatureHumidityPressure
High73 °F (Apr 15, 3:50 PM)100% (Apr 23, 12:50 AM)30.42 "Hg (Apr 23, 12:50 AM)
Low28 °F (Apr 19, 6:20 AM)21% (Apr 21, 6:20 PM)29.68 "Hg (Apr 26, 7:20 PM)
Average50 °F61%30.13 "Hg
* Reported Apr 11 10:20 PM — Apr 26 10:20 PM, Erfurt, Weather by CustomWeather, © 2015

Note: Actual official high and low records may vary slightly from our data, if they occured in-between our weather recording intervals... More about our weather records

Advertising

Erfurt weather history for previous 24 hours

 ConditionsComfort  
Time TempWeatherWind HumidityBarometerVisibility
10:20 PM
Sun, Apr 26
54 °FClear.7 mph82%29.68 "Hg10 mi
9:50 PM55 °FClear.6 mph82%29.68 "Hg10 mi
9:20 PM55 °FSunny.6 mph77%29.68 "Hg10 mi
8:50 PM55 °FSunny.6 mph82%29.68 "Hg10 mi
8:20 PM55 °FSunny.6 mph82%29.68 "Hg10 mi
7:50 PM55 °FSunny.6 mph77%29.68 "Hg10 mi
7:20 PM59 °FSunny.3 mph72%29.68 "Hg10 mi
6:50 PM59 °FBroken clouds.7 mph72%29.71 "HgN/A
6:20 PM61 °FScattered clouds.8 mph68%29.71 "HgN/A
5:50 PM61 °FScattered clouds.12 mph68%29.71 "HgN/A
5:20 PM63 °FSprinkles. Scattered clouds.9 mph64%29.71 "HgN/A
4:50 PM63 °FSprinkles. Scattered clouds.7 mph56%29.71 "HgN/A
4:20 PM64 °FBroken clouds.9 mph52%29.71 "HgN/A
3:50 PM66 °FBroken clouds.12 mph52%29.71 "HgN/A
3:20 PM64 °FBroken clouds.14 mph56%29.71 "HgN/A
2:50 PM64 °FPartly sunny.13 mph60%29.71 "HgN/A
2:20 PM63 °FScattered clouds.13 mph64%29.74 "HgN/A
1:50 PM61 °FScattered clouds.9 mph77%29.74 "HgN/A
1:20 PM57 °FSprinkles. Broken clouds.12 mph82%29.77 "HgN/A
12:50 PM59 °FSprinkles. Scattered clouds.12 mph72%29.77 "HgN/A
12:20 PM61 °FScattered clouds.13 mph63%29.77 "HgN/A
11:50 AM61 °FScattered clouds.14 mph63%29.77 "HgN/A
11:20 AM61 °FScattered clouds.16 mph63%29.77 "HgN/A
10:50 AM59 °FScattered clouds.12 mph68%29.77 "HgN/A
10:20 AM57 °FScattered clouds.9 mph82%29.77 "HgN/A
9:50 AM55 °FBroken clouds.6 mph77%29.77 "HgN/A
9:20 AM55 °FBroken clouds.6 mph77%29.77 "HgN/A
8:50 AM54 °FLight rain. Broken clouds.6 mph82%29.80 "HgN/A
8:20 AM52 °FLight rain. Broken clouds.8 mph88%29.80 "HgN/A
7:50 AM52 °FLight rain. Clear.8 mph88%29.80 "HgN/A
7:20 AM52 °FSunny.6 mph88%29.80 "Hg10 mi
6:50 AM48 °FClear.6 mph94%29.80 "Hg10 mi
6:20 AM48 °FClear.9 mph94%29.80 "Hg10 mi
5:50 AM48 °FClear.7 mph94%29.77 "Hg10 mi
5:20 AM46 °FClear.8 mph93%29.80 "Hg10 mi
4:50 AM48 °FClear.7 mph94%29.80 "Hg10 mi
4:20 AM48 °FClear.6 mph87%29.80 "Hg10 mi
3:50 AM48 °FClear.5 mph94%29.80 "Hg10 mi
3:20 AM48 °FClear.6 mph94%29.80 "Hg10 mi
2:50 AM50 °FClear.9 mph94%29.80 "Hg10 mi
2:20 AM48 °FClear.8 mph94%29.80 "Hg10 mi
1:50 AM48 °FClear.9 mph94%29.80 "Hg10 mi
1:20 AM50 °FClear.10 mph88%29.80 "Hg10 mi
12:50 AM52 °FClear.9 mph88%29.80 "Hg10 mi
12:20 AM52 °FPassing clouds.8 mph88%29.80 "HgN/A
11:20 PM
Sat, Apr 25
55 °FPassing clouds.6 mph82%29.80 "HgN/A
Weather by CustomWeather, © 2015

See weather overviewHow to use our weather pages